Location: Antioch Baptist Church
(32.6696°N, 85.7327°W)
Time: 21:01:47
(UTC+00:00)

CZ-2C R/B - Pass Details

Date: 14 July 2020
Orbit: 502 x 567 km, 97.7° (Epoch: 13 August)

Event Time Altitude Azimuth Distance (km) Brightness Sun altitude
Rises 08:36:26 0° 20° (NNE) 2,768 7.6 -22.6°
Reaches altitude 10° 08:38:41 10° 28° (NNE) 1,864 6.6 -22.3°
Maximum altitude 08:42:30 40° 99° (E) 837 3.9 -21.7°
Enters shadow 08:44:02 28° 147° (SSE) 1,070 4.1 -21.5°
